Weather History for Jamestown, NY

Change the Weather History Date:

Sunday, March 2, 2014

  Actual Average Record
Temperature  
Mean Temperature 9 °F -  
Max Temperature 17 °F 38 °F 63 °F (1991)
Min Temperature 1 °F 17 °F -23 °F (1980)
Degree Days  
Heating Degree Days 56    
Moisture  
Dew Point 2 °F    
Average Humidity 74    
Maximum Humidity 93    
Minimum Humidity 52    
Precipitation  
Precipitation 0.02 in - - ()
Sea Level Pressure  
Sea Level Pressure 30.10 in    
Wind  
Wind Speed 8 mph (NNW)    
Max Wind Speed 13 mph    
Max Gust Speed -    
Visibility 6 miles    
Events      
Averages and records for this station are not official NWS values.
T = Trace of Precipitation, MM = Missing Value Source: NWS Daily Summary

Daily Weather History Graph

Daily Weather History Graph

Search for Another Location

Airport:

Trip Planner

Search our weather history database for the weather conditions in past years. The results will help you decide how hot, cold, wet, or windy it might be!

Date:

Astronomy

Mar. 02, 2014 Rise Set
Actual Time 6:50 AM EST 6:08 PM EST
Civil Twilight 6:22 AM EST 6:36 PM EST
Nautical Twilight 5:50 AM EST 7:08 PM EST
Astronomical Twilight 5:17 AM EST 7:41 PM EST
Moon 7:18 AM EST (3/2) 8:05 PM EST (3/2)
Length of Visible Light 12h 13m
Length of Day
11h 17m
Waxing Crescent, 3% of the Moon is Illuminated
Mar 2
Waxing Crescent
Mar 8
First Quarter
Mar 16
Full
Mar 23
Last Quarter
Mar 30
New

Hourly Weather History & Observations

Time (EST) Temp. Windchill Dew Point Humidity Pressure Visibility Wind Dir Wind Speed Gust Speed Precip Events Conditions
12:15 AM 17.6 °F 7.3 °F 15.8 °F 93% 30.10 in 1.2 mi North 8.1 mph - N/A   Overcast
12:35 AM 15.8 °F 5.1 °F 12.2 °F 86% 30.09 in 1.8 mi North 8.1 mph - N/A   Overcast
12:55 AM 15.8 °F 6.1 °F 12.2 °F 86% 30.09 in 1.5 mi North 6.9 mph - 0.01 in   Overcast
1:15 AM 15.8 °F 6.1 °F 12.2 °F 86% 30.10 in 1.2 mi North 6.9 mph - N/A   Overcast
1:35 AM 15.8 °F 4.2 °F 12.2 °F 86% 30.11 in 3.0 mi North 9.2 mph - N/A   Overcast
1:55 AM 15.8 °F 5.1 °F 12.2 °F 86% 30.10 in 2.0 mi North 8.1 mph - 0.01 in   Overcast
2:15 AM 14.0 °F 3.9 °F 10.4 °F 86% 30.09 in 3.0 mi North 6.9 mph - N/A   Overcast
2:35 AM 14.0 °F 1.2 °F 8.6 °F 79% 30.09 in 2.5 mi NNW 10.4 mph - N/A   Overcast
2:55 AM 12.2 °F -1.8 °F 8.6 °F 85% 30.09 in 5.0 mi North 11.5 mph - N/A   Overcast
3:15 AM 12.2 °F -2.5 °F 8.6 °F 85% 30.08 in 4.0 mi North 12.7 mph - N/A   Overcast
3:35 AM 12.2 °F -1.8 °F 8.6 °F 85% 30.08 in 3.0 mi North 11.5 mph - N/A   Overcast
3:55 AM 12.2 °F -1.0 °F 8.6 °F 85% 30.08 in 5.0 mi North 10.4 mph - N/A   Overcast
4:15 AM 12.2 °F -0.2 °F 8.6 °F 85% 30.09 in 10.0 mi North 9.2 mph - N/A   Overcast
4:35 AM 10.4 °F -1.5 °F 6.8 °F 85% 30.10 in 8.0 mi North 8.1 mph - N/A   Overcast
4:55 AM 10.4 °F -1.5 °F 6.8 °F 85% 30.10 in 2.0 mi North 8.1 mph - N/A   Overcast
5:15 AM 10.4 °F -1.5 °F 6.8 °F 85% 30.11 in 2.0 mi NNW 8.1 mph - N/A   Overcast
5:35 AM 10.4 °F -1.5 °F 6.8 °F 85% 30.11 in 2.0 mi North 8.1 mph - N/A   Overcast
5:55 AM 10.4 °F -2.4 °F 6.8 °F 85% 30.12 in 2.5 mi North 9.2 mph - N/A   Overcast
6:15 AM 10.4 °F -2.4 °F 5.0 °F 79% 30.11 in 2.0 mi NNW 9.2 mph - N/A   Overcast
6:35 AM 10.4 °F -1.5 °F 5.0 °F 79% 30.12 in 2.0 mi North 8.1 mph - N/A   Overcast
6:55 AM 8.6 °F -5.5 °F 6.8 °F 92% 30.12 in 1.2 mi NNW 10.4 mph - N/A   Overcast
7:15 AM 8.6 °F -5.5 °F 3.2 °F 79% 30.12 in 2.0 mi NNW 10.4 mph - N/A   Overcast
7:35 AM 8.6 °F -3.7 °F 5.0 °F 85% 30.12 in 2.0 mi North 8.1 mph - N/A   Overcast
7:55 AM 8.6 °F -4.7 °F 5.0 °F 85% 30.12 in 2.0 mi North 9.2 mph - N/A   Overcast
8:15 AM 8.6 °F -2.6 °F 3.2 °F 79% 30.13 in 0.8 mi North 6.9 mph - N/A   Overcast
8:35 AM 8.6 °F -1.3 °F 5.0 °F 85% 30.14 in 1.8 mi NNW 5.8 mph - N/A   Overcast
8:55 AM 8.6 °F 2.0 °F 3.2 °F 79% 30.13 in 0.8 mi North 3.5 mph - N/A   Overcast
9:15 AM 8.6 °F -1.3 °F 3.2 °F 79% 30.15 in 1.0 mi North 5.8 mph - N/A   Overcast
9:35 AM 8.6 °F 0.1 °F 3.2 °F 79% 30.14 in 3.0 mi North 4.6 mph - N/A   Overcast
9:55 AM 8.6 °F -1.3 °F 3.2 °F 79% 30.14 in 3.0 mi North 5.8 mph - N/A   Overcast
10:15 AM 8.6 °F 0.1 °F 3.2 °F 79% 30.12 in 1.0 mi North 4.6 mph - N/A   Overcast
10:35 AM 8.6 °F 0.1 °F 3.2 °F 79% 30.12 in 1.5 mi North 4.6 mph - N/A   Overcast
10:55 AM 8.6 °F -1.3 °F 3.2 °F 79% 30.11 in 1.5 mi North 5.8 mph - N/A   Overcast
11:15 AM 8.6 °F 0.1 °F 3.2 °F 79% 30.10 in 1.0 mi NNW 4.6 mph - N/A   Overcast
11:35 AM 10.4 °F -1.5 °F 5.0 °F 79% 30.10 in 1.0 mi North 8.1 mph - N/A   Overcast
11:55 AM 10.4 °F 0.8 °F 6.8 °F 85% 30.10 in 5.0 mi North 5.8 mph - N/A   Overcast
12:15 PM 10.4 °F -0.4 °F 6.8 °F 85% 30.09 in 4.0 mi North 6.9 mph - N/A   Overcast
12:35 PM 12.2 °F 0.7 °F 5.0 °F 73% 30.09 in 10.0 mi NNW 8.1 mph - N/A   Overcast
12:55 PM 12.2 °F 0.7 °F 5.0 °F 73% 30.10 in 10.0 mi North 8.1 mph - N/A   Overcast
1:15 PM 12.2 °F 1.7 °F 6.8 °F 79% 30.08 in 10.0 mi NNE 6.9 mph - N/A   Overcast
1:35 PM 12.2 °F -0.2 °F 6.8 °F 79% 30.08 in 10.0 mi North 9.2 mph - N/A   Overcast
1:55 PM 12.2 °F 1.7 °F 5.0 °F 73% 30.09 in 8.0 mi NW 6.9 mph - N/A   Overcast
2:15 PM 12.2 °F 0.7 °F 5.0 °F 73% 30.07 in 4.0 mi NNW 8.1 mph - N/A   Overcast
2:35 PM 12.2 °F 0.7 °F 3.2 °F 67% 30.07 in 1.5 mi North 8.1 mph - N/A   Overcast
2:55 PM 12.2 °F -0.2 °F 3.2 °F 67% 30.08 in 3.0 mi North 9.2 mph - N/A   Overcast
3:15 PM 10.4 °F -2.4 °F -0.4 °F 62% 30.08 in 10.0 mi NW 9.2 mph - N/A   Overcast
3:35 PM 10.4 °F -1.5 °F -0.4 °F 62% 30.08 in 10.0 mi North 8.1 mph - N/A   Overcast
3:55 PM 10.4 °F -3.3 °F -0.4 °F 62% 30.09 in 10.0 mi North 10.4 mph - N/A   Overcast
4:15 PM 10.4 °F -1.5 °F -2.2 °F 57% 30.09 in 10.0 mi NNW 8.1 mph - N/A   Overcast
4:35 PM 10.4 °F -4.1 °F -2.2 °F 57% 30.09 in 10.0 mi NNW 11.5 mph - N/A   Overcast
4:55 PM 8.6 °F -3.7 °F -5.8 °F 52% 30.09 in 10.0 mi WNW 8.1 mph - N/A   Overcast
5:15 PM 8.6 °F -4.7 °F -2.2 °F 62% 30.09 in 10.0 mi WNW 9.2 mph - N/A   Overcast
5:35 PM 8.6 °F -5.5 °F -4.0 °F 57% 30.08 in 10.0 mi NW 10.4 mph - N/A   Overcast
5:55 PM 8.6 °F -3.7 °F -5.8 °F 52% 30.08 in 10.0 mi NW 8.1 mph - N/A   Overcast
6:15 PM 6.8 °F -5.9 °F -4.0 °F 61% 30.09 in 10.0 mi NW 8.1 mph - N/A   Scattered Clouds
6:35 PM 6.8 °F -6.9 °F -4.0 °F 61% 30.09 in 10.0 mi WNW 9.2 mph - N/A   Clear
6:55 PM 6.8 °F -3.5 °F -5.8 °F 56% 30.10 in 10.0 mi NW 5.8 mph - N/A   Clear
7:15 PM 6.8 °F -3.5 °F -7.6 °F 52% 30.10 in 10.0 mi NW 5.8 mph - N/A   Clear
7:35 PM 5.0 °F -6.9 °F -7.6 °F 56% 30.10 in 10.0 mi NW 6.9 mph - N/A   Clear
7:55 PM 5.0 °F -8.1 °F -5.8 °F 61% 30.10 in 10.0 mi NW 8.1 mph - N/A   Clear
8:15 PM 5.0 °F -8.1 °F -5.8 °F 61% 30.10 in 10.0 mi NW 8.1 mph - N/A   Clear
8:35 PM 5.0 °F -9.1 °F -5.8 °F 61% 30.10 in 10.0 mi NW 9.2 mph - N/A   Clear
8:55 PM 5.0 °F -8.1 °F -7.6 °F 56% 30.11 in 10.0 mi NW 8.1 mph - N/A   Clear
9:15 PM 3.2 °F -11.3 °F -7.6 °F 61% 30.11 in 10.0 mi NW 9.2 mph - N/A   Clear
9:35 PM 3.2 °F -9.1 °F -5.8 °F 66% 30.12 in 10.0 mi NNW 6.9 mph - N/A   Clear
9:55 PM 3.2 °F -11.3 °F -7.6 °F 61% 30.11 in 10.0 mi NW 9.2 mph - N/A   Clear
10:15 PM 3.2 °F -10.3 °F -5.8 °F 66% 30.12 in 10.0 mi NW 8.1 mph - N/A   Clear
10:35 PM 3.2 °F -12.2 °F -7.6 °F 61% 30.12 in 10.0 mi NNW 10.4 mph - N/A   Clear
10:55 PM 1.4 °F -14.5 °F -5.8 °F 72% 30.13 in 10.0 mi NW 10.4 mph - N/A   Clear
11:15 PM 1.4 °F -13.5 °F -7.6 °F 66% 30.12 in 10.0 mi NNW 9.2 mph - N/A   Clear
11:35 PM 1.4 °F -13.5 °F -5.8 °F 72% 30.11 in 10.0 mi NNW 9.2 mph - N/A   Clear
11:55 PM 1.4 °F -12.5 °F -7.6 °F 66% 30.12 in 10.0 mi North 8.1 mph - N/A   Clear